CW8095 Weather Reports


time (UTC)temp
C
wind
direction
speed
KPH
gust
KPH
rain 1hr
cm
rain 24hr
cm
rain mn
cm
humidity
%
barometer
mb
20220930170022 23 30 0.0 0.0 0.00 0.00 0.00 38 1019.5
20220930163022 22 30 0.0 0.0 0.00 0.00 0.00 40 1019.7
20220930160027 22 30 0.0 0.0 0.00 0.00 0.00 44 1020.1
20220930153024 21 30 0.0 0.0 0.00 0.00 0.00 46 1020.1
20220930150022 20 30 0.0 0.0 0.00 0.00 0.00 49 1020.1
20220930143018 18 30 0.0 0.0 0.00 0.00 0.00 57 1020.0
20220930140123 17 30 0.0 0.0 0.00 0.00 0.00 61 1019.7
20220930133018 16 30 0.0 0.0 0.00 0.00 0.00 67 1019.8
20220930130044 14 30 0.0 0.0 0.00 0.00 0.00 71 1019.7
20220930123058 14 30 0.0 0.0 0.00 0.00 0.00 70 1019.6
20220930120043 14 30 0.0 0.0 0.00 0.00 0.00 69 1019.7
20220930113021 14 30 0.0 0.0 0.00 0.00 0.00 71 1019.5
20220930110041 15 30 0.0 0.0 0.00 0.00 0.00 68 1019.5
20220930103022 15 30 0.0 0.0 0.00 0.00 0.00 65 1019.5
20220930100024 16 30 0.0 0.0 0.00 0.00 0.00 62 1019.6
20220930093022 17 30 0.0 0.0 0.00 0.00 0.00 59 1019.4
20220930090021 17 30 0.0 0.0 0.00 0.00 0.00 55 1019.5
20220930083042 18 30 0.0 0.0 0.00 0.00 0.00 54 1019.5
20220930080017 18 30 0.0 0.0 0.00 0.00 0.00 52 1019.7
20220930073105 18 30 0.0 0.0 0.00 0.00 0.00 55 1019.7
20220930063041 18 30 0.0 0.0 0.00 0.00 0.00 58 1019.5
20220930060020 19 30 0.0 0.0 0.00 0.00 0.00 58 1019.6
20220930053206 20 30 0.0 0.0 0.00 0.00 0.00 59 1019.5
20220930050017 20 30 0.0 0.0 0.00 0.00 0.00 56 1019.5
20220930043021 20 30 0.0 0.0 0.00 0.00 0.00 55 1019.5
20220930040021 21 30 0.0 0.0 0.00 0.00 0.00 53 1019.2
20220930033021 21 30 0.0 0.0 0.00 0.00 0.00 51 1019.3
20220930030104 22 30 0.0 0.0 0.00 0.00 0.00 48 1019.0
20220930023021 22 30 0.0 0.0 0.00 0.00 0.00 46 1018.8
20220930020021 23 30 0.0 0.0 0.00 0.00 0.00 46 1018.6
20220930013019 23 30 0.0 0.0 0.00 0.00 0.00 46 1018.5
20220930010022 23 30 0.0 0.0 0.00 0.00 0.00 44 1018.3
20220930003021 25 30 0.0 0.0 0.00 0.00 0.00 43 1018.2
20220930000037 26 30 0.0 0.0 0.00 0.00 0.00 39 1018.4
20220929233020 27 30 0.0 0.0 0.00 0.00 0.00 38 1018.4
20220929230120 27 30 0.0 0.0 0.00 0.00 0.00 35 1018.4
20220929223023 28 23 0.0 1.6 0.00 0.00 0.00 35 1018.5
20220929220044 28 23 0.0 1.6 0.00 0.00 0.00 34 1018.8
20220929213044 28 30 0.0 0.0 0.00 0.00 0.00 34 1019.0
20220929210017 28 23 0.0 1.6 0.00 0.00 0.00 37 1019.2
20220929203023 28 30 0.0 0.0 0.00 0.00 0.00 34 1019.4
20220929200017 28 30 0.0 0.0 0.00 0.00 0.00 35 1020.1
20220929193022 27 23 0.0 1.6 0.00 0.00 0.00 34 1020.6
20220929190017 27 23 0.0 6.4 0.00 0.00 0.00 36 1021.2
20220929183022 26 30 0.0 0.0 0.00 0.00 0.00 35 1021.6
20220929180023 26 30 0.0 0.0 0.00 0.00 0.00 39 1022.2
20220929173023 25 30 0.0 0.0 0.00 0.00 0.00 40 1022.6